Location: Davayat
(45.9471°N, 3.1105°E)
Time: 18:06:24
(UTC+00:00)

SAR-Lupe-1 - Pass Details

Date: 01 December 2020
Orbit: 480 x 485 km, 98.2° (Epoch: 26 November)

Event Time Altitude Azimuth Distance (km) Brightness Sun altitude
Exits shadow 17:46:35 42° 80° (E) 709 4.4 -17.2°
Maximum altitude 17:46:58 44° 100° (E) 688 4.4 -17.3°
Drops below altitude 10° 17:50:24 10° 173° (S) 1,664 6.8 -17.9°
Sets 17:52:31 0° 180° (S) 2,538 7.9 -18.2°
